METAR LSZS 102350Z AUTO 26002KT 9999 FEW009 OVC095 11/11 Q1026=
Diese Daten sind ohne Gewähr und dürfen nicht für die Flugvorbereitung verwendet werden.
Information contained in this website shall not be used for flight operation purposes.